FW6908 Weather Reports


time (UTC)temp
F
wind
direction
speed
knots
gust
knots
rain 1hr
in
rain 24hr
in
rain mn
in
humidity
%
barometer
mb
20260506100051 75 265 6.1 9.6 0.00 0.00 0.00 43 1017.7
20260506095554 76 202 2.6 9.6 0.00 0.00 0.00 43 1017.7
20260506095050 75 260 4.3 9.6 0.00 0.00 0.00 43 1017.8
20260506094548 75 240 5.2 7.8 0.00 0.00 0.00 44 1017.8
20260506094147 75 238 5.2 7.8 0.00 0.00 0.00 43 1017.8
20260506093547 75 254 5.2 8.7 0.00 0.00 0.00 44 1017.9
20260506093046 75 183 6.1 8.7 0.00 0.00 0.00 43 1018.0
20260506092545 75 202 5.2 8.7 0.00 0.00 0.00 43 1017.9
20260506092045 74 205 3.5 8.7 0.00 0.00 0.00 41 1018.0
20260506091544 75 230 6.1 8.7 0.00 0.00 0.00 41 1018.1
20260506091044 74 249 2.6 7.0 0.00 0.00 0.00 42 1018.0
20260506090540 74 191 2.6 7.0 0.00 0.00 0.00 41 1018.1
20260506090045 74 245 3.5 7.0 0.00 0.00 0.00 42 1018.0
20260506085538 74 181 2.6 6.1 0.00 0.00 0.00 43 1018.0
20260506085038 73 16 1.7 7.8 0.00 0.00 0.00 44 1017.9
20260506084537 74 229 4.3 7.8 0.00 0.00 0.00 43 1017.8
20260506084036 73 199 4.3 7.0 0.00 0.00 0.00 44 1017.9
20260506083534 73 207 4.3 7.8 0.00 0.00 0.00 44 1017.9
20260506083040 73 271 1.7 8.7 0.00 0.00 0.00 45 1018.0
20260506082533 73 219 5.2 8.7 0.00 0.00 0.00 45 1018.0
20260506082032 73 237 4.3 8.7 0.00 0.00 0.00 45 1018.0
20260506081531 73 226 5.2 8.7 0.00 0.00 0.00 45 1018.1
20260506081032 72 219 1.7 7.8 0.00 0.00 0.00 46 1018.1
20260506080529 72 274 2.6 6.1 0.00 0.00 0.00 47 1018.1
20260506073529 70 259 2.6 5.2 0.00 0.00 0.00 48 1017.7
20260506073023 70 279 1.7 5.2 0.00 0.00 0.00 47 1017.7
20260506072525 70 250 1.7 5.2 0.00 0.00 0.00 47 1017.7
20260506072022 70 194 2.6 5.2 0.00 0.00 0.00 47 1017.6
20260506071525 70 205 1.7 4.3 0.00 0.00 0.00 48 1017.5
20260506071020 69 161 1.7 4.3 0.00 0.00 0.00 49 1017.6
20260506070520 69 225 2.6 4.3 0.00 0.00 0.00 48 1017.6
20260506062512 67 161 0.0 1.7 0.00 0.00 0.00 53 1017.6
20260506062011 66 141 0.0 2.6 0.00 0.00 0.00 54 1017.6
20260506061510 67 140 0.0 2.6 0.00 0.00 0.00 53 1017.6
20260506061011 67 117 0.0 2.6 0.00 0.00 0.00 54 1017.6
20260506060512 66 117 0.0 2.6 0.00 0.00 0.00 55 1017.6
20260506051052 60 340 0.9 4.3 0.00 0.00 0.00 67 1017.5
20260506050551 59 44 0.9 5.2 0.00 0.00 0.00 68 1017.4
20260506045047 58 10 1.7 3.5 0.00 0.00 0.00 71 1017.2
20260506044554 57 360 1.7 3.5 0.00 0.00 0.00 72 1017.2
20260506044044 57 360 0.0 1.7 0.00 0.00 0.00 72 1017.3
20260506043542 57 59 0.0 2.6 0.00 0.00 0.00 72 1017.3
20260506043049 56 58 0.9 2.6 0.00 0.00 0.00 73 1017.3
20260506042540 56 57 0.9 4.3 0.00 0.00 0.00 73 1017.2
20260506042037 55 68 2.6 4.3 0.00 0.00 0.00 74 1017.2
20260506041539 55 96 0.9 4.3 0.00 0.00 0.00 74 1017.2
20260506041035 54 41 2.6 4.3 0.00 0.00 0.00 75 1017.1
20260506040534 54 22 2.6 4.3 0.00 0.00 0.00 75 1017.2
20260506040044 54 39 1.7 5.2 0.00 0.00 0.00 76 1017.1
20260506035534 54 37 2.6 4.3 0.00 0.00 0.00 75 1017.0
20260506035033 55 44 0.9 3.5 0.00 0.00 0.00 75 1016.9
20260506034531 54 49 1.7 3.5 0.00 0.00 0.00 75 1016.9
20260506034031 54 44 1.7 3.5 0.00 0.00 0.00 76 1016.8
20260506033530 54 53 1.7 3.5 0.00 0.00 0.00 76 1016.8
20260506033030 54 40 1.7 3.5 0.00 0.00 0.00 75 1016.7
20260506032529 54 19 1.7 3.5 0.00 0.00 0.00 75 1016.8
20260506032029 54 55 0.9 4.3 0.00 0.00 0.00 75 1016.8
20260506031529 54 65 1.7 4.3 0.00 0.00 0.00 76 1016.7
20260506031029 54 44 2.6 5.2 0.00 0.00 0.00 76 1016.7
20260506030527 54 33 2.6 5.2 0.00 0.00 0.00 76 1016.7
20260506030027 54 49 2.6 5.2 0.00 0.00 0.00 75 1016.7
20260506025526 54 32 1.7 3.5 0.00 0.00 0.00 75 1016.6
20260506025027 54 69 0.9 3.5 0.00 0.00 0.00 75 1016.6
20260506024534 54 55 1.7 4.3 0.00 0.00 0.00 76 1016.6
20260506024026 54 65 2.6 4.3 0.00 0.00 0.00 76 1016.7
20260506023529 53 33 2.6 4.3 0.00 0.00 0.00 77 1016.7
20260506023024 53 50 2.6 4.3 0.00 0.00 0.00 76 1016.7
20260506022524 53 15 2.6 4.3 0.00 0.00 0.00 76 1016.7
20260506022024 53 360 0.9 4.3 0.00 0.00 0.00 76 1016.8
20260506021541 53 53 1.7 4.3 0.00 0.00 0.00 76 1016.7
20260506021023 53 55 2.6 4.3 0.00 0.00 0.00 75 1016.8
20260506020526 53 34 2.6 5.2 0.00 0.00 0.00 76 1016.8
20260506020021 53 17 2.6 5.2 0.00 0.00 0.00 75 1016.9
20260506015521 53 47 3.5 7.0 0.00 0.00 0.00 75 1016.9
20260506015020 54 32 2.6 7.0 0.00 0.00 0.00 75 1016.9
20260506014524 54 39 2.6 4.3 0.00 0.00 0.00 75 1016.9
20260506014018 54 23 2.6 4.3 0.00 0.00 0.00 74 1016.9
20260506013518 54 48 2.6 7.0 0.00 0.00 0.00 74 1017.0
20260506013017 54 46 3.5 7.0 0.00 0.00 0.00 74 1017.0
20260506012516 54 46 3.5 6.1 0.00 0.00 0.00 75 1017.0
20260506012015 53 26 2.6 6.1 0.00 0.00 0.00 75 1016.9
20260506011522 54 29 3.5 5.2 0.00 0.00 0.00 74 1016.9
20260506011014 54 36 3.5 5.2 0.00 0.00 0.00 74 1016.9
20260506010516 54 60 1.7 5.2 0.00 0.00 0.00 74 1016.9
20260506010015 54 61 2.6 5.2 0.00 0.00 0.00 74 1016.9
20260506005512 54 44 2.6 5.2 0.00 0.00 0.00 74 1017.0
20260506005015 54 61 2.6 5.2 0.00 0.00 0.00 74 1017.0
20260506004509 54 36 3.5 5.2 0.00 0.00 0.00 72 1017.1
20260506004009 54 80 2.6 4.3 0.00 0.00 0.00 74 1017.0
20260506003508 54 34 2.6 3.5 0.00 0.00 0.00 72 1017.0
20260506003007 55 26 0.9 3.5 0.00 0.00 0.00 72 1017.0
20260506002508 56 58 0.0 3.5 0.00 0.00 0.00 71 1017.0
20260506002006 56 53 0.9 3.5 0.00 0.00 0.00 70 1017.1
20260506001506 56 74 1.7 4.3 0.00 0.00 0.00 70 1017.1
20260506001006 56 69 2.6 3.5 0.00 0.00 0.00 71 1017.1
20260506000506 56 59 2.6 3.5 0.00 0.00 0.00 71 1017.1
20260506000005 56 29 1.7 3.5 0.00 0.00 0.00 70 1017.1
20260505235504 56 61 2.6 4.3 0.00 0.00 0.00 72 1017.1
20260505235006 56 61 1.7 5.2 0.00 0.00 0.00 72 1017.2
20260505234510 55 40 4.3 5.2 0.00 0.00 0.00 73 1017.2
20260505234003 55 30 1.7 5.2 0.00 0.00 0.00 74 1017.2
20260505233501 55 30 2.6 5.2 0.00 0.00 0.00 73 1017.3
20260505233100 55 16 0.0 3.5 0.00 0.00 0.00 74 1017.2
20260505232559 56 95 0.0 2.6 0.00 0.00 0.00 72 1017.3
20260505232059 57 103 0.0 1.7 0.00 0.00 0.00 74 1017.3
20260505231559 57 102 0.0 2.6 0.00 0.00 0.00 70 1017.3
20260505231058 58 101 0.9 2.6 0.00 0.00 0.00 72 1017.4
20260505230559 58 59 0.9 1.7 0.00 0.00 0.00 72 1017.5
20260505230057 57 58 0.9 3.5 0.00 0.00 0.00 72 1017.5
20260505225559 57 57 0.9 3.5 0.00 0.00 0.00 73 1017.4
20260505225058 56 38 0.9 3.5 0.00 0.00 0.00 73 1017.6
20260505224557 56 38 0.9 3.5 0.00 0.00 0.00 74 1017.7
20260505224055 56 38 1.7 3.5 0.00 0.00 0.00 74 1017.6
20260505223555 56 36 1.7 3.5 0.00 0.00 0.00 73 1017.6
20260505223107 56 40 1.7 2.6 0.00 0.00 0.00 72 1017.6
20260505222554 57 40 0.0 2.6 0.00 0.00 0.00 73 1017.6
20260505222054 56 40 0.0 2.6 0.00 0.00 0.00 74 1017.7
20260505221554 56 25 0.9 2.6 0.00 0.00 0.00 73 1017.7
20260505221053 56 15 1.7 3.5 0.00 0.00 0.00 72 1017.7
20260505220551 57 12 1.7 3.5 0.00 0.00 0.00 72 1017.7
20260505220051 57 37 1.7 3.5 0.00 0.00 0.00 72 1017.7
20260505215553 57 71 0.9 4.3 0.00 0.00 0.00 72 1017.7
20260505215050 57 43 2.6 5.2 0.00 0.00 0.00 72 1017.6
20260505214557 57 35 3.5 5.2 0.00 0.00 0.00 72 1017.6
20260505214050 57 42 1.7 3.5 0.00 0.00 0.00 71 1017.6
20260505213547 58 56 0.0 2.6 0.00 0.00 0.00 71 1017.6
20260505213047 57 49 1.7 4.3 0.00 0.00 0.00 71 1017.6
20260505212546 58 46 1.7 4.3 0.00 0.00 0.00 70 1017.6
20260505212045 59 27 0.9 3.5 0.00 0.00 0.00 68 1017.6
20260505211550 59 80 0.9 3.5 0.00 0.00 0.00 68 1017.6
20260505211043 59 82 2.6 3.5 0.00 0.00 0.00 69 1017.6
20260505210540 59 65 1.7 4.3 0.00 0.00 0.00 70 1017.8
20260505210040 58 65 0.9 5.2 0.00 0.00 0.00 70 1017.7
20260505205539 58 48 3.5 4.3 0.00 0.00 0.00 70 1017.7
20260505205040 59 29 2.6 4.3 0.00 0.00 0.00 69 1017.6
20260505204539 59 47 1.7 4.3 0.00 0.00 0.00 69 1017.6
20260505204040 59 43 2.6 4.3 0.00 0.00 0.00 69 1017.7
20260505203539 58 43 1.7 4.3 0.00 0.00 0.00 70 1017.7
20260505203050 58 42 3.5 4.3 0.00 0.00 0.00 70 1017.7
20260505202539 59 11 2.6 4.3 0.00 0.00 0.00 69 1017.7
20260505202039 59 11 1.7 5.2 0.00 0.00 0.00 67 1017.8
20260505201538 60 30 2.6 5.2 0.00 0.00 0.00 66 1017.8
20260505201038 61 15 1.7 4.3 0.00 0.00 0.00 67 1017.8
20260505200538 61 55 2.6 5.2 0.00 0.00 0.00 68 1017.7
20260505200038 60 52 1.7 5.2 0.00 0.00 0.00 69 1017.8
20260505195539 61 53 3.5 5.2 0.00 0.00 0.00 69 1017.7
20260505195037 61 43 2.6 5.2 0.00 0.00 0.00 68 1017.8
20260505194542 61 28 2.6 4.3 0.00 0.00 0.00 67 1017.7
20260505194037 62 30 1.7 3.5 0.00 0.00 0.00 67 1017.6
20260505193537 62 30 0.0 2.6 0.00 0.00 0.00 67 1017.6
20260505193036 62 27 0.9 4.3 0.00 0.00 0.00 67 1017.6
20260505192540 62 36 2.6 5.2 0.00 0.00 0.00 67 1017.7
20260505192036 62 44 2.6 5.2 0.00 0.00 0.00 68 1017.6
20260505191543 62 21 1.7 3.5 0.00 0.00 0.00 68 1017.6
20260505191036 63 20 1.7 3.5 0.00 0.00 0.00 67 1017.7
20260505190535 63 17 1.7 3.5 0.00 0.00 0.00 66 1017.6
20260505190036 64 37 1.7 3.5 0.00 0.00 0.00 64 1017.6
20260505185539 65 10 0.9 4.3 0.00 0.00 0.00 62 1017.6
20260505185035 65 49 1.7 4.3 0.00 0.00 0.00 60 1017.4
20260505184545 66 41 1.7 2.6 0.00 0.00 0.00 57 1017.4
20260505184035 66 355 0.9 3.5 0.00 0.00 0.00 58 1017.4
20260505183537 66 360 0.0 3.5 0.00 0.00 0.00 57 1017.4
20260505183041 67 301 1.7 2.6 0.00 0.00 0.00 55 1017.3
20260505182538 67 292 0.0 3.5 0.00 0.00 0.00 54 1017.2
20260505182034 67 299 2.6 3.5 0.00 0.00 0.00 55 1017.3
20260505181535 67 273 1.7 4.3 0.00 0.00 0.00 55 1017.3
20260505181037 67 246 1.7 4.3 0.00 0.00 0.00 54 1017.2
20260505180536 68 282 1.7 3.5 0.00 0.00 0.00 53 1017.1
20260505180034 68 223 1.7 3.5 0.00 0.00 0.00 52 1017.1
20260505175533 68 241 1.7 2.6 0.00 0.00 0.00 51 1017.0
20260505175033 69 246 0.0 2.6 0.00 0.00 0.00 50 1017.0
20260505174533 69 249 0.0 4.3 0.00 0.00 0.00 49 1017.0
20260505174033 69 259 2.6 6.1 0.00 0.00 0.00 48 1017.0
20260505173533 69 270 3.5 6.1 0.00 0.00 0.00 48 1016.9
20260505173033 69 269 1.7 3.5 0.00 0.00 0.00 47 1016.8
20260505172532 70 271 2.6 5.2 0.00 0.00 0.00 47 1016.8
20260505172033 70 181 3.5 5.2 0.00 0.00 0.00 49 1016.9
20260505171534 70 144 0.9 7.0 0.00 0.00 0.00 50 1016.9
20260505171032 70 117 4.3 7.0 0.00 0.00 0.00 49 1017.0
20260505170532 70 155 2.6 7.0 0.00 0.00 0.00 50 1017.1
20260505170036 70 161 4.3 7.0 0.00 0.00 0.00 50 1017.1
20260505165531 70 155 4.3 7.8 0.00 0.00 0.00 50 1016.9
20260505165031 71 142 3.5 7.8 0.00 0.00 0.00 51 1016.9
20260505164535 71 155 2.6 8.7 0.00 0.00 0.00 51 1016.9
20260505164030 71 166 5.2 8.7 0.00 0.00 0.00 50 1017.0
20260505163529 72 155 2.6 7.8 0.00 0.00 0.00 49 1017.0
20260505163029 72 173 4.3 6.1 0.00 0.00 0.00 49 1017.1
20260505162532 73 195 3.5 4.3 0.00 0.00 0.00 37 1017.1
20260505162029 73 196 1.7 6.1 0.00 0.00 0.00 37 1017.0
20260505161529 73 171 3.5 7.8 0.00 0.00 0.00 37 1017.0
20260505161031 73 225 2.6 5.2 0.00 0.00 0.00 37 1016.9
20260505160527 74 244 3.5 7.0 0.00 0.00 0.00 37 1016.8
20260505153016 74 240 4.3 6.1 0.00 0.00 0.00 36 1016.7
20260505152516 74 252 3.5 7.0 0.00 0.00 0.00 36 1016.7
20260505152014 74 259 5.2 7.0 0.00 0.00 0.00 36 1016.6
20260505151517 74 226 5.2 7.8 0.00 0.00 0.00 37 1016.5
20260505151013 74 265 4.3 7.8 0.00 0.00 0.00 37 1016.5
20260505150513 74 252 4.3 10.4 0.00 0.00 0.00 37 1016.6
20260505140503 74 224 6.1 9.6 0.00 0.00 0.00 34 1016.7
20260505124556 74 219 7.8 13.0 0.00 0.00 0.00 33 1017.3
20260505124053 75 193 6.1 11.3 0.00 0.00 0.00 33 1017.2
20260505123552 75 229 5.2 10.4 0.00 0.00 0.00 33 1017.3
20260505123054 75 243 7.8 13.9 0.00 0.00 0.00 33 1017.3
20260505122550 75 203 6.1 13.9 0.00 0.00 0.00 33 1017.3
20260505122050 75 188 6.1 10.4 0.00 0.00 0.00 34 1017.3
20260505121551 76 180 6.1 10.4 0.00 0.00 0.00 33 1017.4
20260505121049 75 281 6.1 11.3 0.00 0.00 0.00 34 1017.7
20260505120548 74 188 4.3 11.3 0.00 0.00 0.00 35 1017.7
20260505120057 74 207 4.3 14.8 0.00 0.00 0.00 36 1017.8
20260505115548 74 215 8.7 14.8 0.00 0.00 0.00 35 1017.8
20260505115048 74 170 7.8 13.0 0.00 0.00 0.00 35 1017.7
20260505114547 74 159 8.7 13.9 0.00 0.00 0.00 36 1017.8
20260505114046 74 188 8.7 13.9 0.00 0.00 0.00 36 1017.8
20260505113547 75 167 7.0 14.8 0.00 0.00 0.00 37 1017.7
20260505113049 76 192 5.2 13.9 0.00 0.00 0.00 37 1017.6
20260505112544 75 244 6.1 17.4 0.00 0.00 0.00 38 1017.7
20260505112044 76 291 9.6 17.4 0.00 0.00 0.00 34 1017.7
20260505111546 75 277 5.2 13.9 0.00 0.00 0.00 37 1017.8
20260505111045 75 255 6.1 8.7 0.00 0.00 0.00 39 1017.7
20260505110541 75 182 4.3 8.7 0.00 0.00 0.00 36 1017.8
20260505102035 73 175 4.3 13.0 0.00 0.00 0.00 38 1018.0
20260505101536 73 225 7.0 13.0 0.00 0.00 0.00 39 1018.2
20260505101032 74 250 7.8 13.0 0.00 0.00 0.00 38 1018.2
20260505100531 73 217 7.8 13.9 0.00 0.00 0.00 39 1018.0